Location: Olmeneta
(45.2333°N, 10.0167°E)
Time: 14:50:42
(UTC+00:00)

CSL-04 Rocket - Pass Details

Date: 03 March 2021
Orbit: 805 x 861 km, 98.9° (Epoch: 15 April)

Event Time Altitude Azimuth Distance (km) Brightness Sun altitude
Rises 18:20:56 0° 162° (SSE) 3,424 6.6 -13.3°
Reaches altitude 10° 18:23:18 10° 161° (SSE) 2,490 5.9 -13.7°
Maximum altitude 18:28:51 85° 74° (ENE) 866 3.7 -14.7°
Drops below altitude 10° 18:34:24 10° 347° (NNW) 2,486 6.4 -15.6°
Sets 18:36:46 0° 347° (NNW) 3,419 7.1 -16.0°
